Regional Weather Roundup
Issued by NWS Kansas City/Pleasant Hill, MO

Home | Current Version | Previous Version | Text Only | Print | Product List | Glossary On
Versions: 1 2 3 4 5 6 7 8 9 10 11 12 13 14 15 16 17 18 19 20 21 22 23 24 25 26 27
000
ASUS43 KEAX 311010
RWREAX

WEATHER ROUNDUP FOR EASTERN KANSAS AND NORTHWEST MISSOURI
NATIONAL WEATHER SERVICE KANSAS CITY/PLEASANT HILL MO
500 AM CDT TUE MAY 31 2016

KSZ040-057-103>105-MOZ028-029-037-043-311100-
...KANSAS CITY METROPOLITAN AREA...

CITY           SKY/WX    TMP DP  RH WIND       PRES   REMARKS
K.C. INTL      CLOUDY    62  59  90 CALM      29.94S
K.C. DOWNTOWN  LGT RAIN  65  61  87 E5        29.93S
LEES SUMMIT    CLOUDY    63  61  93 E3        29.95R
OLATHE - IXD   CLOUDY    62  61  96 S3        29.95R
OLATHE - OJC   CLOUDY    61  60  97 CALM      29.95R
LAWRENCE       PTCLDY    60  59  96 CALM      29.94R

$$

MOZ001>008-011>017-020>025-030>033-038>040-044>046-053-054-311100-
...NORTHERN AND CENTRAL MISSOURI...

CITY           SKY/WX    TMP DP  RH WIND       PRES   REMARKS
ST. JOSEPH     MOCLDY    63  61  93 S6        29.94R
MOSBY          CLOUDY    63  61  94 CALM      29.94S
WARRENSBURG    CLOUDY    61  61 100 CALM      29.95R
WHITEMAN AFB   CLOUDY    63  63 100 SE5       29.94R
CLINTON        CLOUDY    63  63 100 CALM      29.96R
SEDALIA        CLOUDY    65  62  90 SE7       29.97R
WARSAW         NOT AVBL
CHILLICOTHE      N/A     62  60  93 CALM      29.96S
KIRKSVILLE     CLOUDY    63  61  93 CALM      29.97R

$$

MOZ041-047>049-056>058-063>065-088>090-097-311100-
...EASTERN AND SOUTHERN MISSOURI...

CITY           SKY/WX    TMP DP  RH WIND       PRES   REMARKS
ST. LOUIS INTL CLOUDY    70  63  78 CALM      29.97F
SPIRIT OF STL  MOCLDY    66  65  96 CALM      29.96F
COLUMBIA       CLOUDY    64  62  93 SE5       29.97F
JEFFERSON CITY LGT RAIN  65  64  97 E3        29.97S
ROLLA          CLOUDY    63  61  93 E5        29.97F
SPRINGFIELD    CLOUDY    65  62  90 SE7       29.94S
JOPLIN         CLOUDY    65  64  97 SE3       29.95R
WEST PLAINS    CLOUDY    64  60  87 E3        29.99R

$$

IAZ060-094-KSZ022-034>040-054-083-096-NEZ052-066-093-311100-
...KANSAS...SOUTHEAST NEBRASKA AND IOWA...

CITY           SKY/WX    TMP DP  RH WIND       PRES   REMARKS
TOPEKA         CLOUDY    63  60  90 CALM      29.94R
MANHATTAN      CLOUDY    65  60  84 SW7       29.91R
EMPORIA        CLOUDY    60  59  96 NW5       29.95R
CHANUTE        CLOUDY    62  60  93 CALM      29.92F FOG
WICHITA        CLOUDY    66  63  90 N10       29.94R THUNDER
OMAHA          MOCLDY    67  62  84 SE7       29.86S
LINCOLN        LGT RAIN  65  57  75 NW6       29.88R
FALLS CITY     LGT RAIN  64  61  90 S9        29.88F
LAMONI         CLOUDY    61  58  90 S8        29.93S
DES MOINES     CLOUDY    66  58  75 S12       29.91S

$$





USA.gov is the U.S. government's official web portal to all federal, state and local government web resources and services.